UAL152 TNCA-SEGU

Flight info

Callsign UAL152
Flight time N/A
Altitude 38000
Route NOREX1F NOREX UL450 STB UG431 ENPUT DCT MQU DCT QIT/N0478F390 UP533 PAMIS DCT DAKAB STAR2
Aircraft B77W/H-SDE1E2E3FGHIJ2J3J4J5M1RWXY/LB1D1

Departure

Time N/A
Airport Queen Beatrix International Airport (TNCA)

Arrival

Time 2026-04-16 16:11
Airport José Joaquín de Olmedo International Airport (SEGU)
Time Latitude Longitude Altitude Speed Heading
2026-04-16 14:29 7.81886 -72.70502 38052 ft 454 kts 223°
2026-04-16 14:29 7.79465 -72.72571 38058 ft 455 kts 223°
2026-04-16 14:30 7.74624 -72.76704 38064 ft 456 kts 223°
2026-04-16 14:30 7.69787 -72.80833 38086 ft 457 kts 222°
2026-04-16 14:31 7.64905 -72.85000 38072 ft 460 kts 222°
2026-04-16 14:31 7.60016 -72.89170 38086 ft 461 kts 222°
2026-04-16 14:32 7.55127 -72.93338 38098 ft 460 kts 222°
2026-04-16 14:32 7.50247 -72.97498 38087 ft 459 kts 222°
2026-04-16 14:33 7.45378 -73.01649 38080 ft 458 kts 222°
2026-04-16 14:33 7.40544 -73.05767 38086 ft 458 kts 222°
2026-04-16 14:34 7.35669 -73.09920 38080 ft 459 kts 222°
2026-04-16 14:34 7.30761 -73.14101 38082 ft 459 kts 222°
2026-04-16 14:35 7.25914 -73.18227 38092 ft 460 kts 222°
2026-04-16 14:35 7.21022 -73.22390 38101 ft 461 kts 222°
2026-04-16 14:36 7.16128 -73.26553 38097 ft 461 kts 222°
2026-04-16 14:36 7.11221 -73.30726 38110 ft 462 kts 222°
2026-04-16 14:37 7.06304 -73.34908 38065 ft 463 kts 222°
2026-04-16 14:37 7.01380 -73.39093 38045 ft 463 kts 222°
2026-04-16 14:38 6.97289 -73.42570 38024 ft 463 kts 222°
2026-04-16 14:38 6.92359 -73.46758 38031 ft 464 kts 222°
2026-04-16 14:39 6.87426 -73.50949 38019 ft 466 kts 222°
2026-04-16 14:39 6.82461 -73.55165 37996 ft 467 kts 222°
2026-04-16 14:40 6.77490 -73.59384 38002 ft 467 kts 222°
2026-04-16 14:40 6.72527 -73.63595 38033 ft 465 kts 222°
2026-04-16 14:41 6.67586 -73.67787 38034 ft 464 kts 222°
2026-04-16 14:41 6.62656 -73.71969 38039 ft 463 kts 222°
2026-04-16 14:42 6.57729 -73.76147 38041 ft 463 kts 221°
2026-04-16 14:42 6.52801 -73.80325 38042 ft 464 kts 221°
2026-04-16 14:43 6.47860 -73.84513 38045 ft 465 kts 221°
2026-04-16 14:43 6.42902 -73.88713 38047 ft 467 kts 221°
2026-04-16 14:44 6.37937 -73.92919 38062 ft 468 kts 221°
2026-04-16 14:44 6.32955 -73.97138 38059 ft 469 kts 221°
2026-04-16 14:45 6.27999 -74.01334 38079 ft 469 kts 222°
2026-04-16 14:45 6.23006 -74.05560 38071 ft 469 kts 221°
2026-04-16 14:46 6.18010 -74.09787 38082 ft 469 kts 221°
2026-04-16 14:46 6.13027 -74.14002 38087 ft 468 kts 222°
2026-04-16 14:47 6.08047 -74.18215 38084 ft 467 kts 221°
2026-04-16 14:47 6.03079 -74.22416 38091 ft 467 kts 221°
2026-04-16 14:48 5.98110 -74.26616 38097 ft 467 kts 221°
2026-04-16 14:48 5.93148 -74.30809 38103 ft 467 kts 221°
2026-04-16 14:49 5.88162 -74.35022 38103 ft 468 kts 221°
2026-04-16 14:49 5.83175 -74.39235 38107 ft 469 kts 221°
2026-04-16 14:50 5.78180 -74.43454 38108 ft 470 kts 221°
2026-04-16 14:50 5.73174 -74.47680 38114 ft 471 kts 221°
2026-04-16 14:51 5.68151 -74.51920 38103 ft 472 kts 221°
2026-04-16 14:51 5.63135 -74.56154 38098 ft 472 kts 221°
2026-04-16 14:53 5.43027 -74.73114 38029 ft 473 kts 221°
2026-04-16 14:54 5.37978 -74.77369 38012 ft 475 kts 221°
2026-04-16 14:54 5.32920 -74.81633 38004 ft 475 kts 221°
2026-04-16 14:55 5.27869 -74.85890 37993 ft 474 kts 221°
2026-04-16 14:55 5.22826 -74.90138 37992 ft 473 kts 221°
2026-04-16 14:56 5.17632 -74.94166 37998 ft 472 kts 216°
2026-04-16 14:56 5.12200 -74.97887 37998 ft 472 kts 216°
2026-04-16 14:57 5.06755 -75.01588 38021 ft 476 kts 216°
2026-04-16 14:57 5.01283 -75.05337 38022 ft 475 kts 216°
2026-04-16 14:58 4.93133 -75.10947 38071 ft 473 kts 216°
2026-04-16 14:59 4.87715 -75.14680 38074 ft 472 kts 216°
2026-04-16 14:59 4.82316 -75.18398 38082 ft 471 kts 216°
2026-04-16 15:00 4.76901 -75.22125 38083 ft 471 kts 216°
2026-04-16 15:00 4.71504 -75.25840 38089 ft 471 kts 216°
2026-04-16 15:01 4.66097 -75.29560 38091 ft 471 kts 216°
2026-04-16 15:01 4.60686 -75.33283 38088 ft 472 kts 216°
2026-04-16 15:02 4.55279 -75.37002 38086 ft 472 kts 216°
2026-04-16 15:02 4.49861 -75.40728 38085 ft 473 kts 216°
2026-04-16 15:03 4.44464 -75.44439 38079 ft 473 kts 216°
2026-04-16 15:03 4.39023 -75.48181 38091 ft 476 kts 216°
2026-04-16 15:04 4.33568 -75.51929 38098 ft 475 kts 216°
2026-04-16 15:04 4.28115 -75.55676 38100 ft 473 kts 216°
2026-04-16 15:05 4.22689 -75.59403 38101 ft 473 kts 216°
2026-04-16 15:05 4.17272 -75.63125 38090 ft 472 kts 216°
2026-04-16 15:06 4.11858 -75.66843 38094 ft 472 kts 216°
2026-04-16 15:06 4.06448 -75.70559 38095 ft 472 kts 216°
2026-04-16 15:07 4.01023 -75.74284 38109 ft 473 kts 216°
2026-04-16 15:07 3.95589 -75.78014 38099 ft 474 kts 216°
2026-04-16 15:08 3.90146 -75.81752 38107 ft 474 kts 216°
2026-04-16 15:08 3.84716 -75.85477 38123 ft 474 kts 216°
2026-04-16 15:09 3.79264 -75.89217 38106 ft 474 kts 216°
2026-04-16 15:09 3.73825 -75.92949 38115 ft 473 kts 216°
2026-04-16 15:10 3.68412 -75.96662 38185 ft 472 kts 216°
2026-04-16 15:10 3.63013 -76.00366 38177 ft 472 kts 216°
2026-04-16 15:11 3.57574 -76.04095 38160 ft 472 kts 216°
2026-04-16 15:11 3.52162 -76.07806 38145 ft 472 kts 216°
2026-04-16 15:12 3.46755 -76.11513 38138 ft 472 kts 216°
2026-04-16 15:12 3.41308 -76.15246 38134 ft 473 kts 216°
2026-04-16 15:13 3.35878 -76.18968 38127 ft 474 kts 216°
2026-04-16 15:13 3.30434 -76.22698 38113 ft 475 kts 216°
2026-04-16 15:14 3.24982 -76.26434 38117 ft 475 kts 216°
2026-04-16 15:14 3.19574 -76.30139 38117 ft 475 kts 216°
2026-04-16 15:15 3.14067 -76.33911 38112 ft 476 kts 216°
2026-04-16 15:15 3.08610 -76.37648 38109 ft 476 kts 216°
2026-04-16 15:16 3.03143 -76.41392 38105 ft 476 kts 216°
2026-04-16 15:16 2.97723 -76.45104 38102 ft 476 kts 216°
2026-04-16 15:17 2.92215 -76.48875 38101 ft 476 kts 216°
2026-04-16 15:17 2.86749 -76.52617 38097 ft 476 kts 216°
2026-04-16 15:18 2.81283 -76.56358 38099 ft 476 kts 216°
2026-04-16 15:18 2.75854 -76.60074 38117 ft 476 kts 216°
2026-04-16 15:19 2.70404 -76.63803 38142 ft 475 kts 216°
2026-04-16 15:19 2.64935 -76.67545 38165 ft 476 kts 216°
2026-04-16 15:20 2.59473 -76.71283 38171 ft 476 kts 216°
2026-04-16 15:20 2.54002 -76.75026 38174 ft 477 kts 215°
2026-04-16 15:21 2.48526 -76.78771 38164 ft 477 kts 215°
2026-04-16 15:21 2.43048 -76.82518 38148 ft 477 kts 215°
2026-04-16 15:22 2.37580 -76.86257 38121 ft 478 kts 215°
2026-04-16 15:22 2.32053 -76.90038 38071 ft 481 kts 215°
2026-04-16 15:23 2.26526 -76.93817 38050 ft 481 kts 215°
2026-04-16 15:23 2.21009 -76.97589 38058 ft 480 kts 215°
2026-04-16 15:24 2.15485 -77.01365 38053 ft 480 kts 215°
2026-04-16 15:24 2.10910 -77.04492 38054 ft 480 kts 215°
2026-04-16 15:25 2.05384 -77.08269 38051 ft 481 kts 215°
2026-04-16 15:25 1.99865 -77.12041 38048 ft 481 kts 215°
2026-04-16 15:26 1.94337 -77.15820 38047 ft 481 kts 215°
2026-04-16 15:26 1.88802 -77.19601 38047 ft 481 kts 215°
2026-04-16 15:27 1.83272 -77.23381 38052 ft 482 kts 215°
2026-04-16 15:27 1.77739 -77.27161 38045 ft 482 kts 215°
2026-04-16 15:28 1.72210 -77.30938 38077 ft 481 kts 215°
2026-04-16 15:28 1.66687 -77.34712 38105 ft 481 kts 216°
2026-04-16 15:29 1.61163 -77.38485 38145 ft 480 kts 216°
2026-04-16 15:29 1.55643 -77.42256 38164 ft 479 kts 216°
2026-04-16 15:30 1.50132 -77.46020 38172 ft 480 kts 216°
2026-04-16 15:30 1.44609 -77.49792 38165 ft 482 kts 215°
2026-04-16 15:31 1.39071 -77.53572 38148 ft 482 kts 215°
2026-04-16 15:31 1.33528 -77.57359 38130 ft 483 kts 215°
2026-04-16 15:32 1.27980 -77.61148 38107 ft 484 kts 215°
2026-04-16 15:32 1.22457 -77.64919 38104 ft 484 kts 215°
2026-04-16 15:33 1.16859 -77.68741 38174 ft 484 kts 215°
2026-04-16 15:33 1.11323 -77.72520 38246 ft 485 kts 215°
2026-04-16 15:34 1.05752 -77.76324 38296 ft 485 kts 215°
2026-04-16 15:34 1.00187 -77.80123 38334 ft 485 kts 215°
2026-04-16 15:35 0.94629 -77.83918 38369 ft 485 kts 215°
2026-04-16 15:35 0.89056 -77.87722 38382 ft 484 kts 215°
2026-04-16 15:36 0.83494 -77.91519 38356 ft 484 kts 215°
2026-04-16 15:36 0.77917 -77.95325 38310 ft 484 kts 215°
2026-04-16 15:37 0.72348 -77.99126 38254 ft 485 kts 215°
2026-04-16 15:37 0.66777 -78.02929 38198 ft 485 kts 215°
2026-04-16 15:38 0.61202 -78.06734 38200 ft 486 kts 215°
2026-04-16 15:38 0.55618 -78.10545 38207 ft 486 kts 215°
2026-04-16 15:39 0.50029 -78.14360 38219 ft 487 kts 215°
2026-04-16 15:39 0.44431 -78.18180 38237 ft 487 kts 215°
2026-04-16 15:40 0.38839 -78.21996 38243 ft 488 kts 215°
2026-04-16 15:40 0.33244 -78.25815 38253 ft 488 kts 215°
2026-04-16 15:41 0.27629 -78.29647 38267 ft 488 kts 214°
2026-04-16 15:41 0.22022 -78.33474 38288 ft 488 kts 214°
2026-04-16 15:42 0.16404 -78.37308 38324 ft 489 kts 214°
2026-04-16 15:42 0.10790 -78.41140 38355 ft 489 kts 214°
2026-04-16 15:43 0.05159 -78.44983 38373 ft 490 kts 214°
2026-04-16 15:43 -0.00476 -78.48830 38364 ft 490 kts 214°
2026-04-16 15:44 -0.06115 -78.52649 38361 ft 490 kts 213°
2026-04-16 15:44 -0.11826 -78.56351 38361 ft 489 kts 212°
2026-04-16 15:45 -0.17541 -78.60022 38342 ft 489 kts 213°
2026-04-16 15:45 -0.23250 -78.63711 38307 ft 488 kts 213°
2026-04-16 15:46 -0.28950 -78.67408 38261 ft 489 kts 213°
2026-04-16 15:46 -0.31839 -78.69284 37417 ft 501 kts 212°
2026-04-16 15:46 -0.34743 -78.71169 36706 ft 500 kts 212°
2026-04-16 15:46 -0.37667 -78.73067 35967 ft 499 kts 212°
2026-04-16 15:47 -0.40568 -78.74950 35402 ft 494 kts 212°
2026-04-16 15:47 -0.43443 -78.76815 34818 ft 491 kts 212°
2026-04-16 15:47 -0.46298 -78.78668 34255 ft 488 kts 212°
2026-04-16 15:47 -0.49134 -78.80508 33625 ft 484 kts 212°
2026-04-16 15:48 -0.51943 -78.82331 33082 ft 480 kts 212°
2026-04-16 15:48 -0.54727 -78.84137 32613 ft 474 kts 212°
2026-04-16 15:48 -0.57448 -78.85903 32119 ft 470 kts 212°
2026-04-16 15:48 -0.60181 -78.87676 31606 ft 466 kts 212°
2026-04-16 15:49 -0.62885 -78.89431 31084 ft 463 kts 212°
2026-04-16 15:49 -0.65579 -78.91179 30566 ft 460 kts 212°
2026-04-16 15:49 -0.68225 -78.92897 29990 ft 458 kts 212°
2026-04-16 15:49 -0.70869 -78.94613 29419 ft 454 kts 212°
2026-04-16 15:50 -0.73522 -78.96335 28854 ft 451 kts 212°
2026-04-16 15:50 -0.76143 -78.98036 28328 ft 447 kts 212°
2026-04-16 15:50 -0.78745 -78.99725 27798 ft 444 kts 213°
2026-04-16 15:50 -0.81235 -79.01523 27289 ft 441 kts 219°
2026-04-16 15:51 -0.83527 -79.03551 26769 ft 438 kts 222°
2026-04-16 15:51 -0.85759 -79.05617 26260 ft 435 kts 223°
2026-04-16 15:51 -0.87963 -79.07671 25741 ft 433 kts 223°
2026-04-16 15:51 -0.90160 -79.09715 25240 ft 431 kts 223°
2026-04-16 15:52 -0.92356 -79.11750 24704 ft 430 kts 223°
2026-04-16 15:52 -0.94554 -79.13778 24202 ft 428 kts 223°
2026-04-16 15:52 -0.96739 -79.15788 23695 ft 426 kts 223°
2026-04-16 15:52 -0.98890 -79.17765 23080 ft 409 kts 223°
2026-04-16 15:53 -1.00927 -79.19634 22590 ft 390 kts 223°
2026-04-16 15:53 -1.02917 -79.21460 22140 ft 388 kts 223°
2026-04-16 15:53 -1.04900 -79.23280 21662 ft 387 kts 222°
2026-04-16 15:53 -1.06882 -79.25099 21220 ft 386 kts 222°
2026-04-16 15:54 -1.08857 -79.26911 20758 ft 385 kts 222°
2026-04-16 15:54 -1.10831 -79.28723 20291 ft 384 kts 222°
2026-04-16 15:54 -1.12783 -79.30515 19844 ft 384 kts 222°
2026-04-16 15:54 -1.14763 -79.32333 19365 ft 384 kts 222°
2026-04-16 15:55 -1.16675 -79.34088 18911 ft 384 kts 222°
2026-04-16 15:55 -1.18697 -79.35944 18424 ft 385 kts 222°
2026-04-16 15:55 -1.20643 -79.37731 17901 ft 385 kts 222°
2026-04-16 15:55 -1.22624 -79.39550 17395 ft 384 kts 222°
2026-04-16 15:56 -1.24568 -79.41334 16920 ft 383 kts 222°
2026-04-16 15:56 -1.26567 -79.43170 16446 ft 381 kts 222°
2026-04-16 15:56 -1.28512 -79.44955 15970 ft 380 kts 222°
2026-04-16 15:56 -1.30459 -79.46743 15496 ft 379 kts 222°
2026-04-16 15:57 -1.32404 -79.48531 15015 ft 378 kts 222°
2026-04-16 15:57 -1.34332 -79.50301 14560 ft 377 kts 221°
2026-04-16 15:57 -1.36237 -79.52049 14037 ft 375 kts 221°
2026-04-16 15:57 -1.38145 -79.53802 13446 ft 360 kts 221°
2026-04-16 15:58 -1.39932 -79.55443 12973 ft 351 kts 221°
2026-04-16 15:58 -1.41729 -79.57094 12529 ft 350 kts 221°
2026-04-16 15:58 -1.43519 -79.58737 12085 ft 349 kts 222°
2026-04-16 15:58 -1.45303 -79.60376 11648 ft 349 kts 222°
2026-04-16 15:59 -1.48887 -79.63633 10781 ft 344 kts 218°
2026-04-16 15:59 -1.50915 -79.64878 10421 ft 341 kts 202°
2026-04-16 15:59 -1.53109 -79.65646 10301 ft 327 kts 197°
2026-04-16 16:00 -1.55215 -79.66289 10150 ft 306 kts 197°
2026-04-16 16:00 -1.57194 -79.66888 10019 ft 289 kts 197°
2026-04-16 16:00 -1.59081 -79.67459 9770 ft 280 kts 197°
2026-04-16 16:00 -1.60942 -79.68026 9462 ft 280 kts 197°
2026-04-16 16:01 -1.62796 -79.68592 9139 ft 280 kts 197°
2026-04-16 16:01 -1.64660 -79.69163 8828 ft 281 kts 197°
2026-04-16 16:01 -1.66534 -79.69739 8502 ft 281 kts 197°
2026-04-16 16:01 -1.68407 -79.70315 8181 ft 282 kts 197°
2026-04-16 16:02 -1.70284 -79.70893 7859 ft 283 kts 197°
2026-04-16 16:02 -1.72167 -79.71474 7524 ft 282 kts 197°
2026-04-16 16:02 -1.73989 -79.72036 7205 ft 268 kts 197°
2026-04-16 16:02 -1.75775 -79.72587 6909 ft 269 kts 197°
2026-04-16 16:03 -1.77569 -79.73141 6593 ft 271 kts 197°
2026-04-16 16:03 -1.79372 -79.73698 6348 ft 269 kts 197°
2026-04-16 16:03 -1.81126 -79.74239 6148 ft 259 kts 197°
2026-04-16 16:03 -1.82818 -79.74762 5674 ft 249 kts 197°
2026-04-16 16:04 -1.84428 -79.75259 5370 ft 237 kts 197°
2026-04-16 16:04 -1.85990 -79.75741 5090 ft 234 kts 197°
2026-04-16 16:04 -1.87505 -79.76210 4807 ft 225 kts 197°
2026-04-16 16:04 -1.88973 -79.76663 4537 ft 213 kts 197°
2026-04-16 16:05 -1.90365 -79.77092 4332 ft 214 kts 198°
2026-04-16 16:05 -1.91811 -79.77538 4128 ft 216 kts 198°
2026-04-16 16:05 -1.93209 -79.77971 3954 ft 205 kts 198°
2026-04-16 16:05 -1.94545 -79.78384 3875 ft 195 kts 198°
2026-04-16 16:06 -1.95808 -79.78775 3767 ft 189 kts 198°
2026-04-16 16:06 -1.97081 -79.79169 3692 ft 189 kts 198°
2026-04-16 16:06 -1.98322 -79.79552 3634 ft 190 kts 198°
2026-04-16 16:06 -1.99590 -79.79943 3510 ft 190 kts 198°
2026-04-16 16:07 -2.00859 -79.80334 3294 ft 191 kts 198°
2026-04-16 16:07 -2.02111 -79.80720 3072 ft 183 kts 198°
2026-04-16 16:07 -2.03273 -79.81183 2774 ft 171 kts 208°
2026-04-16 16:07 -2.04248 -79.81716 2511 ft 154 kts 211°
2026-04-16 16:08 -2.05144 -79.82230 2256 ft 143 kts 211°
2026-04-16 16:08 -2.05977 -79.82714 2230 ft 145 kts 212°
2026-04-16 16:08 -2.06894 -79.83248 1900 ft 155 kts 211°
2026-04-16 16:08 -2.07795 -79.83767 1637 ft 143 kts 212°
2026-04-16 16:09 -2.08640 -79.84257 1444 ft 143 kts 212°
2026-04-16 16:09 -2.09518 -79.84766 1264 ft 148 kts 211°
2026-04-16 16:09 -2.10406 -79.85280 1056 ft 146 kts 211°
2026-04-16 16:09 -2.11275 -79.85784 885 ft 144 kts 210°
2026-04-16 16:10 -2.12146 -79.86288 690 ft 145 kts 209°
2026-04-16 16:10 -2.13024 -79.86795 476 ft 146 kts 208°
2026-04-16 16:10 -2.13893 -79.87291 305 ft 145 kts 208°
2026-04-16 16:10 -2.14769 -79.87799 91 ft 146 kts 208°
2026-04-16 16:11 -2.15345 -79.88137 38 ft 140 kts 208°
2026-04-16 16:11 -2.16121 -79.88583 33 ft 109 kts 210°
2026-04-16 16:11 -2.16550 -79.88834 33 ft 43 kts 209°
2026-04-16 16:11 -2.16664 -79.88897 32 ft 13 kts 209°
2026-04-16 16:12 -2.16714 -79.88945 32 ft 10 kts 253°
2026-04-16 16:12 -2.16683 -79.88995 33 ft 10 kts 346°
2026-04-16 16:12 -2.16615 -79.88978 33 ft 11 kts 26°
2026-04-16 16:12 -2.16547 -79.88947 33 ft 11 kts 28°
2026-04-16 16:13 -2.16482 -79.88905 33 ft 11 kts 32°
2026-04-16 16:13 -2.16413 -79.88862 33 ft 13 kts 32°
2026-04-16 16:13 -2.16329 -79.88814 33 ft 15 kts 28°
2026-04-16 16:13 -2.16238 -79.88762 33 ft 15 kts 30°
2026-04-16 16:14 -2.16149 -79.88710 34 ft 15 kts 30°
2026-04-16 16:14 -2.16058 -79.88658 34 ft 15 kts 30°
2026-04-16 16:14 -2.15964 -79.88604 33 ft 16 kts 30°
2026-04-16 16:14 -2.15869 -79.88548 33 ft 16 kts 30°
2026-04-16 16:15 -2.15773 -79.88493 33 ft 16 kts 30°
2026-04-16 16:15 -2.15676 -79.88437 33 ft 16 kts 30°
2026-04-16 16:15 -2.15579 -79.88381 33 ft 16 kts 30°
2026-04-16 16:15 -2.15481 -79.88325 33 ft 16 kts 30°
2026-04-16 16:16 -2.15386 -79.88270 32 ft 16 kts 30°
2026-04-16 16:16 -2.15292 -79.88226 33 ft 13 kts
2026-04-16 16:16 -2.15228 -79.88287 33 ft 14 kts 301°
2026-04-16 16:16 -2.15182 -79.88367 34 ft 11 kts 300°
2026-04-16 16:17 -2.15128 -79.88384 34 ft 8 kts
2026-04-16 16:17 -2.15076 -79.88367 34 ft 7 kts 13°
2026-04-16 16:17 -2.15050 -79.88376 34 ft 4 kts 320°
2026-04-16 16:17 -2.15032 -79.88398 34 ft 4 kts 306°
2026-04-16 16:18 -2.15029 -79.88403 34 ft 0 kts 304°
2026-04-16 16:18 -2.15026 -79.88407 34 ft 1 kts 302°
2026-04-16 16:18 -2.15024 -79.88411 34 ft 0 kts 302°